Vertical_Velocity
6 -4 -7 4 6 7 -1 -1 -4 0 4 2 2 3 2 0 2 1 3 5 7 4
-6 -2 -2 7 6 -1 7 4 0 -3 -11 -3 -3 2 -2 -5 0 5 1 1 -1 -6
6 2 15 6 8 -1 -2 0 6 5 -0 -1 0 2 5 2 -0 -1 0 -1 -0 2
11 -2 16 9 21 19 16 10 8 6 -9 4 8 6 3 -3 4 4 1 0 2 2
5 -4 5 6 2 -1 5 1 8 6 1 1 9 4 1 6 6 5 8 -1 6 -1
-3 1 3 2 2 -10 7 7 2 5 6 10 7 10 1 2 -1 -1 -3 11 3 -2
-2 2 -9 6 -3 6 4 5 1 6 -2 3 0 7 -5 2 -6 3 6 6 -2 -6
7 -3 0 13 2 7 2 5 4 -3 -2 -4 3 1 0 0 4 3 2 -1 -1 4
1 -5 -2 -4 3 2 -8 7 2 6 7 4 6 5 4 2 2 5 1 0 -3 3
-1 -1 -1 2 -0 -0 -1 -1 -5 -4 -2 -5 -4 -3 -4 -5 0 0 -1 -3 0 2
-1 -0 -10 -3 2 -0 3 3 7 -0 2 3 6 2 4 -1 -2 4 5 -2 2 1
3 5 2 5 1 5 1 4 -9 5 2 -3 2 -1 2 -2 1 -1 -1 3 4 -1
-4 -5 -3 2 4 1 -3 0 -9 5 2 -7 1 1 -2 -0 -0 -0 1 0 6 2
-3 -1 3 4 6 -2 1 1 -3 0 -2 1 7 7 4 7 7 3 4 6 -1 6
Height
3042 3048 3050 3053 3055 3063 3070 3075 3078 3082 3086 3090 3092 3093 3096 3099 3101 3103 3106 3107 3108 3107
3041 3045 3049 3050 3053 3058 3061 3067 3072 3075 3080 3084 3088 3090 3091 3094 3096 3097 3100 3102 3103 3102
3036 3044 3045 3047 3050 3056 3060 3062 3064 3067 3073 3078 3082 3082 3084 3087 3090 3092 3093 3095 3094 3093
3035 3037 3039 3043 3046 3051 3052 3054 3058 3062 3067 3069 3072 3075 3077 3080 3081 3083 3083 3084 3084 3084
3032 3036 3037 3040 3042 3043 3046 3048 3051 3056 3060 3062 3066 3067 3068 3071 3072 3074 3074 3073 3075 3077
3032 3032 3036 3037 3041 3042 3042 3045 3048 3052 3055 3058 3059 3059 3061 3063 3065 3066 3067 3070 3070 3072
3030 3032 3035 3033 3037 3037 3040 3041 3044 3046 3048 3049 3052 3053 3056 3058 3060 3061 3062 3064 3066 3065
3028 3030 3031 3031 3033 3035 3037 3038 3040 3043 3047 3047 3048 3050 3050 3052 3055 3056 3057 3058 3059 3059
3025 3026 3028 3030 3030 3032 3034 3034 3037 3038 3039 3040 3043 3045 3046 3048 3050 3050 3051 3051 3053 3052
3023 3024 3025 3026 3027 3027 3029 3031 3032 3033 3034 3035 3038 3039 3041 3043 3045 3045 3045 3045 3048 3047
3021 3021 3022 3024 3024 3025 3025 3025 3028 3029 3030 3031 3033 3034 3035 3037 3039 3039 3039 3039 3039 3040
3018 3019 3020 3020 3021 3021 3021 3021 3023 3024 3023 3026 3027 3027 3029 3030 3032 3031 3032 3032 3032 3032
3014 3014 3016 3016 3016 3016 3015 3016 3018 3019 3018 3020 3022 3022 3023 3023 3023 3023 3025 3024 3025 3025
3008 3007 3007 3008 3009 3009 3010 3009 3011 3012 3014 3014 3016 3014 3016 3016 3016 3016 3017 3017 3016 3017